COSMOS 2251 DEB, 33892

Orbit data source: Space-Track

COSMOS 2251 DEB, 33892 is space debris in LEO originally from a launch on Wed, 16 Jun 1993 UTC launched from the Plesetsk Missile And Space Complex (PKMTR). The debris from Iridium 33, an American commercial communications satellite, has been tracked extensively since its accidental collision with the defunct Russian satellite Cosmos 2251 in 2009. This event, occurring at high speed in low Earth orbit (LEO), generated thousands of pieces of space debris, significantly increasing the risk of further collisions. The Iridium 33 debris cloud has impacted space traffic management and orbital debris mitigation strategies, making it a subject of ongoing study in space situational awareness.

Loading next visibility...
Identifier
33892, 1993-036CV
Orbit
LEO
Country
Flag of CISCIS
Related business
Manufacturer
Unknown
Mission
Spacecraft
Bus & Motor
Unknown
Mass
Unknown
Launch date (UTC)
1993-06-16 (33 years ago)
Launch vehicle
Unknown
Launch site
Plesetsk Missile And Space Complex (PKMTR)
Object type
Payload
Rocket body
Debris
Shape & HBR
Unknown shape, 0.1 m
Radar Cross Section
Small (<0.1 m²)

Expand to show TLE details & history
Last TLE update: 18 hours ago

TLE from 18 hours ago
0 COSMOS 2251 DEB
1 33892U 93036CV  25353.56279666  .00001102  00000-0  46603-3 0  9997
2 33892  73.8027  89.6107 0112470 119.5256 258.3174 14.23360104870525
Epoch: 2025-12-19T13:30Z
TLE epoch observation values (Epoch: 2025-12-19T13:30:25.631Z)
Latitude
15.89494°
Longitude
163.32133°
Altitude
833.175 km
Speed
7.429 km/s
True Right ascension
06h 17m 19s
True Declination
15° 48' 20"
Sunlit
Object was in full shadow at epoch
Visualization orbit readout
Latitude
Unknown
Longitude
Unknown
Altitude
Unknown
Speed
Unknown
Apparent Right ascension
Unknown
Apparent Declination
Unknown
Sunlit
N/A
Visualization observer readout
Local Sidereal Time
06:41:18
Azimuth
Unknown
Elevation
Unknown
Doppler factor
Unknown
Orbital elements
Apogee altitude
892.533 km
Perigee altitude
730.805 km
Semi-major axis
7,189.806 km
Eccentricity
0.01125
Inclination
73.8027°
RAAN
89.6107°
Arg. of periapsis
119.5256°
True anomaly
257.05897°
Mean anomaly
258.3174°
Eccentric anomaly
257.68782°
Mean motion
3.56014 °/min
Orbital period
101.12 mins
BSTAR
0.00046603
Loading maneuver chart data...
Computing Atmospheric mass density...

Documentation

Showing up to 5 results
|